{"data":{"norad_id":58038,"epoch":"2026-05-25T02:14:10.891104Z","epoch_age_seconds":67228,"freshness":"FRESH","line1":"1 58038U 23156L   26145.09318161  .00000807  00000+0  39356-4 0  9992","line2":"2 58038  53.1606  80.6392 0001251  84.0562 276.0582 15.30197897148002","mean_motion":15.30197897,"eccentricity":0.0001251,"inclination_deg":53.1606,"raan_deg":80.6392,"arg_perigee_deg":84.0562,"mean_anomaly_deg":276.0582,"bstar":3.9356e-5,"rev_number":14800,"period_min":94.105475038436,"perigee_km":474.36399347604,"apogee_km":476.07870373486,"semimajor_km":6853.3583486054,"source":"CELESTRAK","updated_at":"2026-05-25T13:38:18.496206Z"}}